Погода в Вулканном

Россия / Камчатский край     53°05′41″N   158°20′48″E
темп.,
°C
ветер,
м/с
пор.,
м/с
влажн.,
%
обл.,
%
осадки,
мм/ч
давл.,
гПа
погр.,
м
23 мая, пн
пн2300:00+3ю0099100 0.0 102619
03:00+2з0099100 0.0 102628
06:00+2в0099100 0.0 102539
09:00+3в119799 0.0 1027138
12:00+4юв2293100 0.0 1026277
15:00+4в1293100 0.0 1026302
18:00+4в1192100 0.0 1025203
21:00+4в1195100 0.0 102582
24 мая, вт
вт2400:00+4в0196100 0.0 102451
03:00+4св0097100 0.0 102339
06:00+4всв0097100 0.0 102236
09:00+4вюв1195100 0.0 1022129
12:00+5вюв1193100 0.0 1021205
15:00+6юв118980 0.0 1020278
18:00+7вюв2281100 0.0 1019397
21:00+6вюв1190100 0.0 101942
25 мая, ср
ср2500:00+4вюв119568 0.0 101910
03:00+3зсз119563 0.0 101810
06:00+3зсз009275 0.0 101610
09:00+7юв11766 0.0 1016276
12:00+11вюв116034 0.0 1014602
15:00+12вюв325350 0.0 1012709
18:00+11в32625 0.0 1012346
21:00+7в21744 0.0 1012117
26 мая, чт
чт2600:00+6всв11810 0.0 101246
03:00+4в118625 0.0 101220
06:00+4в118573 0.0 101213
09:00+6вюв117387 0.0 1012303
12:00+8вюв3364100 0.0 1011617
15:00+8в3362100 0.0 1010690
18:00+7в3366100 0.0 1011545
21:00+5в2277100 0.1 1011368
27 мая, пт
пт2700:00+4в2284100 0.1 1012334
03:00+4вюв1287100 0.0 1012264
06:00+3в119074 0.0 1012191
09:00+4в118497 0.0 1013436
12:00+5в118294 0.1 1013596
15:00+5зсз0188100 0.1 1014564
18:00+7зюз017898 0.1 1014478
21:00+7з1277100 0.0 1015416